FW9247 Weather Reports


time (UTC)temp
C
wind
direction
speed
KPH
gust
KPH
rain 1hr
cm
rain 24hr
cm
rain mn
cm
humidity
%
barometer
mb
20260505223038 17 281 3.2 16.1 0.00 0.00 0.00 62 1015.5
20260505221524 18 304 0.0 12.9 0.00 0.00 0.00 61 1015.3
20260505220041 18 299 0.0 11.3 0.00 0.00 0.00 60 1015.4
20260505214524 18 266 0.0 8.0 0.00 0.00 0.00 59 1015.5
20260505213042 18 236 0.0 4.8 0.00 0.00 0.00 60 1015.6
20260505211521 17 237 4.8 11.3 0.00 0.00 0.00 62 1015.6
20260505210036 18 245 0.0 12.9 0.00 0.00 0.00 62 1015.6
20260505204518 17 18 0.0 9.7 0.00 0.00 0.00 64 1015.6
20260505203056 17 267 1.6 14.5 0.00 0.00 0.00 65 1015.8
20260505201535 17 282 1.6 16.1 0.00 0.00 0.00 66 1016.1
20260505200105 17 256 0.0 12.9 0.00 0.00 0.00 66 1015.9
20260505194536 16 277 0.0 11.3 0.00 0.00 0.00 68 1015.7
20260505193019 16 250 0.0 9.7 0.00 0.00 0.00 66 1015.6
20260505191554 16 344 0.0 12.9 0.00 0.00 0.00 68 1015.6
20260505190025 16 267 0.0 9.7 0.00 0.00 0.00 70 1015.6
20260505184548 15 284 0.0 3.2 0.00 0.00 0.00 70 1015.6
20260505183027 15 289 1.6 11.3 0.00 0.00 0.00 71 1015.6
20260505181549 15 250 3.2 9.7 0.00 0.00 0.00 73 1015.5
20260505180104 15 265 0.0 0.0 0.00 0.00 0.00 75 1015.5
20260505174557 15 269 0.0 0.0 0.00 0.00 0.00 74 1015.5
20260505173035 15 256 0.0 0.0 0.00 0.00 0.00 74 1015.5
20260505171503 15 149 0.0 0.0 0.00 0.00 0.00 73 1015.3
20260505170033 14 148 0.0 0.0 0.00 0.00 0.00 71 1015.3
20260505164515 14 150 0.0 0.0 0.00 0.00 0.00 71 1015.3
20260505163044 15 150 0.0 0.0 0.00 0.00 0.00 70 1015.1
20260505161523 14 153 0.0 0.0 0.00 0.00 0.00 73 1015.3
20260505153045 13 148 0.0 0.0 0.00 0.00 0.00 78 1015.4
20260505151510 13 148 0.0 0.0 0.00 0.00 0.00 80 1015.4
20260505124531 12 168 0.0 0.0 0.00 0.00 0.00 82 1014.5
20260505123055 12 168 0.0 0.0 0.00 0.00 0.00 81 1014.5
20260505121538 12 168 0.0 0.0 0.00 0.00 0.00 80 1014.5
20260505120054 12 168 0.0 0.0 0.00 0.00 0.00 80 1014.5
20260505114543 12 168 0.0 0.0 0.00 0.00 0.00 81 1014.5
20260505113014 12 168 0.0 0.0 0.00 0.00 0.00 81 1014.4
20260505111552 12 168 0.0 0.0 0.00 0.00 0.00 81 1014.4
20260505101503 12 168 0.0 0.0 0.00 0.00 0.00 84 1014.0
20260505094537 12 168 0.0 0.0 0.00 0.00 0.00 84 1014.0
20260505093058 12 168 0.0 0.0 0.00 0.00 0.00 84 1014.0
20260505091533 12 168 0.0 0.0 0.00 0.00 0.00 84 1014.0
20260505090047 12 168 0.0 0.0 0.00 0.00 0.00 85 1014.0
20260505084524 12 168 0.0 0.0 0.00 0.00 0.00 86 1014.0
20260505083054 12 168 0.0 0.0 0.00 0.00 0.00 86 1014.1
20260505081529 12 168 0.0 0.0 0.00 0.00 0.00 86 1014.2
20260505080044 12 171 0.0 0.0 0.00 0.00 0.00 86 1014.3
20260505074502 12 171 0.0 0.0 0.00 0.00 0.00 86 1014.4
20260505073052 12 215 0.0 0.0 0.00 0.00 0.00 86 1014.4
20260505071534 12 215 0.0 0.0 0.00 0.00 0.00 86 1014.5
20260505064538 12 215 0.0 0.0 0.00 0.00 0.00 86 1014.4
20260505063013 12 215 0.0 0.0 0.00 0.00 0.00 86 1014.4
20260505061549 12 215 0.0 0.0 0.00 0.00 0.00 86 1014.5
20260505060033 12 218 0.0 0.0 0.00 0.00 0.00 86 1014.5
20260505054551 12 218 0.0 0.0 0.00 0.00 0.00 86 1014.4
20260505053025 12 218 0.0 0.0 0.00 0.00 0.00 86 1014.4
20260505051558 12 227 0.0 0.0 0.00 0.00 0.00 86 1014.4
20260505041503 12 268 0.0 4.8 0.00 0.00 0.00 85 1014.0
20260505040029 12 159 0.0 0.0 0.00 0.00 0.00 85 1013.9
20260505034506 12 159 0.0 0.0 0.00 0.00 0.00 84 1013.7
20260505033045 12 160 0.0 0.0 0.00 0.00 0.00 84 1013.5
20260505031524 13 160 0.0 0.0 0.00 0.00 0.00 83 1013.4
20260505030046 13 158 0.0 0.0 0.00 0.00 0.00 82 1013.3
20260505024518 13 157 0.0 0.0 0.00 0.00 0.00 83 1013.3
20260505023051 13 212 0.0 1.6 0.00 0.00 0.00 82 1013.2
20260505021530 13 227 0.0 0.0 0.00 0.00 0.00 82 1013.2
20260505020052 13 262 0.0 0.0 0.00 0.00 0.00 82 1013.3
20260505014526 13 176 0.0 9.7 0.00 0.00 0.00 81 1013.3
20260505013009 13 252 1.6 14.5 0.00 0.00 0.00 81 1013.3
20260505011551 14 263 3.2 12.9 0.00 0.00 0.00 79 1013.3
20260505010013 15 273 0.0 12.9 0.00 0.00 0.00 78 1013.3
20260505004549 15 175 0.0 6.4 0.00 0.00 0.00 78 1013.4
20260505003023 15 259 0.0 9.7 0.00 0.00 0.00 77 1013.4
20260505001556 15 275 0.0 9.7 0.00 0.00 0.00 77 1013.5
20260505001502 15 275 0.0 9.7 0.00 0.00 0.00 77 1013.5
20260505000025 15 265 0.0 8.0 0.00 0.00 0.00 76 1013.6
20260504234555 15 267 1.6 14.5 0.00 0.00 0.00 76 1013.7
20260504233041 15 257 0.0 11.3 0.00 0.00 0.00 76 1013.9
20260504231520 15 286 4.8 14.5 0.00 0.00 0.00 75 1014.0
20260504230037 15 264 3.2 19.3 0.00 0.00 0.00 75 1014.0
20260504224507 15 269 1.6 12.9 0.00 0.00 0.00 77 1014.1